RYR8976 LBSF-EPKK

Flight info

Callsign RYR8976
Flight time N/A
Altitude 36000
Route OGOTA N133 RESLA DCT LOMOS DCT OVDOT DCT SODGO DCT RUPUG DCT ETNOG DCT KSC DCT KOJOT DCT RAZEC DCT LENOV
Aircraft B38M/M-SDE1FGHILORVWXY/HB1

Departure

Time N/A
Airport Sofia Airport (LBSF)

Arrival

Time 2026-05-05 11:40
Airport Kraków John Paul II International Airport (EPKK)
Time Latitude Longitude Altitude Speed Heading
2026-05-05 10:35 43.98000 23.19379 33602 ft 414 kts 345°
2026-05-05 10:35 44.00768 23.18315 33999 ft 413 kts 344°
2026-05-05 10:35 44.03539 23.17249 34338 ft 412 kts 344°
2026-05-05 10:35 44.06314 23.16181 34638 ft 413 kts 344°
2026-05-05 10:36 44.09092 23.15109 34909 ft 413 kts 344°
2026-05-05 10:36 44.11832 23.14052 35179 ft 413 kts 344°
2026-05-05 10:36 44.14610 23.12979 35451 ft 414 kts 344°
2026-05-05 10:36 44.17397 23.11902 35716 ft 414 kts 344°
2026-05-05 10:37 44.20184 23.10823 35970 ft 415 kts 344°
2026-05-05 10:37 44.22940 23.09755 36061 ft 416 kts 344°
2026-05-05 10:37 44.28518 23.07591 36048 ft 414 kts 344°
2026-05-05 10:38 44.34055 23.05439 36050 ft 414 kts 344°
2026-05-05 10:38 44.39629 23.03268 36041 ft 414 kts 344°
2026-05-05 10:39 44.45161 23.01109 36043 ft 415 kts 344°
2026-05-05 10:39 44.50739 22.98928 36036 ft 415 kts 344°
2026-05-05 10:40 44.56315 22.96743 36038 ft 415 kts 344°
2026-05-05 10:40 44.61868 22.94562 36038 ft 416 kts 344°
2026-05-05 10:41 44.67426 22.92376 36034 ft 416 kts 344°
2026-05-05 10:41 44.73013 22.90173 36038 ft 416 kts 344°
2026-05-05 10:42 44.81353 22.86877 36040 ft 417 kts 344°
2026-05-05 10:43 44.86984 22.84727 36037 ft 417 kts 349°
2026-05-05 10:43 44.92663 22.83227 36045 ft 417 kts 348°
2026-05-05 10:44 44.98368 22.81635 36043 ft 418 kts 348°
2026-05-05 10:44 45.04046 22.80031 36045 ft 418 kts 348°
2026-05-05 10:45 45.09758 22.78413 36051 ft 418 kts 348°
2026-05-05 10:45 45.15481 22.76788 36048 ft 418 kts 348°
2026-05-05 10:46 45.21162 22.75173 36043 ft 418 kts 348°
2026-05-05 10:46 45.26899 22.73538 36048 ft 419 kts 348°
2026-05-05 10:47 45.32585 22.71914 36042 ft 419 kts 348°
2026-05-05 10:47 45.38319 22.70273 36041 ft 419 kts 348°
2026-05-05 10:48 45.44016 22.68639 36036 ft 420 kts 348°
2026-05-05 10:48 45.49754 22.66990 36033 ft 420 kts 348°
2026-05-05 10:49 45.55492 22.65337 36031 ft 420 kts 348°
2026-05-05 10:49 45.61206 22.63689 36025 ft 420 kts 348°
2026-05-05 10:50 45.66938 22.62031 36028 ft 420 kts 348°
2026-05-05 10:50 45.71719 22.60645 36018 ft 421 kts 348°
2026-05-05 10:51 45.78398 22.58706 36026 ft 421 kts 348°
2026-05-05 10:51 45.84149 22.57032 36022 ft 421 kts 348°
2026-05-05 10:52 45.89868 22.55364 36022 ft 421 kts 348°
2026-05-05 10:52 45.94662 22.53964 36021 ft 421 kts 348°
2026-05-05 10:53 46.00423 22.52278 36026 ft 421 kts 348°
2026-05-05 10:53 46.06140 22.50600 36022 ft 422 kts 348°
2026-05-05 10:54 46.11897 22.48908 36025 ft 421 kts 348°
2026-05-05 10:54 46.17663 22.47209 36020 ft 422 kts 348°
2026-05-05 10:55 46.23419 22.45509 36023 ft 422 kts 348°
2026-05-05 10:55 46.29147 22.43814 36026 ft 422 kts 348°
2026-05-05 10:56 46.34879 22.42115 36024 ft 422 kts 348°
2026-05-05 10:56 46.40641 22.40402 36023 ft 421 kts 348°
2026-05-05 10:57 46.46369 22.38697 36028 ft 422 kts 348°
2026-05-05 10:57 46.52129 22.36978 36017 ft 422 kts 348°
2026-05-05 10:58 46.57897 22.35253 36030 ft 422 kts 348°
2026-05-05 10:58 46.63626 22.33535 36026 ft 422 kts 348°
2026-05-05 10:59 46.69395 22.31803 36019 ft 422 kts 348°
2026-05-05 10:59 46.75115 22.30081 36026 ft 422 kts 348°
2026-05-05 11:00 46.80886 22.28341 36024 ft 422 kts 348°
2026-05-05 11:00 46.86607 22.26612 36021 ft 422 kts 348°
2026-05-05 11:01 46.92340 22.24712 36023 ft 422 kts 345°
2026-05-05 11:01 46.98007 22.22581 36025 ft 422 kts 345°
2026-05-05 11:02 47.03712 22.20459 36020 ft 423 kts 345°
2026-05-05 11:02 47.09422 22.18334 36022 ft 423 kts 345°
2026-05-05 11:03 47.15114 22.16211 36022 ft 423 kts 345°
2026-05-05 11:03 47.20827 22.14076 36021 ft 423 kts 345°
2026-05-05 11:04 47.26558 22.11929 36021 ft 423 kts 345°
2026-05-05 11:04 47.32252 22.09792 36018 ft 424 kts 345°
2026-05-05 11:05 47.37979 22.07637 36017 ft 424 kts 345°
2026-05-05 11:05 47.43663 22.05493 36021 ft 424 kts 345°
2026-05-05 11:06 47.49407 22.03323 36019 ft 425 kts 345°
2026-05-05 11:06 47.55130 22.01155 36015 ft 425 kts 345°
2026-05-05 11:07 47.60834 21.98989 36015 ft 425 kts 345°
2026-05-05 11:07 47.66553 21.96648 36004 ft 425 kts 336°
2026-05-05 11:08 47.71875 21.92964 36007 ft 425 kts 335°
2026-05-05 11:08 47.77252 21.89250 36006 ft 425 kts 334°
2026-05-05 11:09 47.82599 21.85536 35998 ft 425 kts 334°
2026-05-05 11:09 47.87969 21.81798 35995 ft 425 kts 334°
2026-05-05 11:10 47.93308 21.78072 35994 ft 425 kts 334°
2026-05-05 11:10 47.98688 21.74310 35997 ft 425 kts 334°
2026-05-05 11:11 48.04024 21.70569 35993 ft 425 kts 334°
2026-05-05 11:11 48.09388 21.66800 35996 ft 425 kts 334°
2026-05-05 11:12 48.14730 21.63038 35996 ft 425 kts 334°
2026-05-05 11:12 48.20087 21.59257 35997 ft 426 kts 334°
2026-05-05 11:13 48.25424 21.55480 36002 ft 425 kts 333°
2026-05-05 11:13 48.30788 21.51676 35997 ft 425 kts 333°
2026-05-05 11:14 48.36152 21.47864 35997 ft 425 kts 333°
2026-05-05 11:14 48.41475 21.44071 35997 ft 426 kts 333°
2026-05-05 11:15 48.46839 21.40240 35995 ft 426 kts 333°
2026-05-05 11:15 48.52200 21.36402 35989 ft 419 kts 333°
2026-05-05 11:15 48.54790 21.34545 35913 ft 406 kts 333°
2026-05-05 11:16 48.57305 21.32739 35474 ft 402 kts 333°
2026-05-05 11:16 48.59835 21.30921 34938 ft 402 kts 333°
2026-05-05 11:16 48.62359 21.29106 34430 ft 400 kts 333°
2026-05-05 11:16 48.64871 21.27298 33957 ft 399 kts 333°
2026-05-05 11:17 48.67378 21.25496 33411 ft 397 kts 334°
2026-05-05 11:17 48.70000 21.24188 32839 ft 399 kts 346°
2026-05-05 11:17 48.72662 21.23272 32398 ft 395 kts 344°
2026-05-05 11:17 48.75324 21.22296 31978 ft 391 kts 344°
2026-05-05 11:18 48.77965 21.21338 31540 ft 389 kts 345°
2026-05-05 11:18 48.80591 21.20387 31082 ft 387 kts 345°
2026-05-05 11:18 48.83206 21.19441 30646 ft 384 kts 345°
2026-05-05 11:18 48.85802 21.18500 30219 ft 382 kts 345°
2026-05-05 11:19 48.88357 21.17574 29747 ft 381 kts 345°
2026-05-05 11:19 48.90924 21.16641 29288 ft 378 kts 345°
2026-05-05 11:19 48.93474 21.15714 28865 ft 375 kts 345°
2026-05-05 11:19 48.96004 21.14794 28461 ft 371 kts 345°
2026-05-05 11:20 48.98488 21.13891 28017 ft 370 kts 345°
2026-05-05 11:20 49.00991 21.12979 27614 ft 367 kts 345°
2026-05-05 11:20 49.03477 21.12072 27238 ft 365 kts 344°
2026-05-05 11:20 49.05936 21.11175 26855 ft 362 kts 345°
2026-05-05 11:21 49.08390 21.10278 26470 ft 360 kts 345°
2026-05-05 11:21 49.10828 21.09387 26091 ft 359 kts 345°
2026-05-05 11:21 49.13241 21.08505 25667 ft 359 kts 344°
2026-05-05 11:21 49.15683 21.07614 25301 ft 358 kts 344°
2026-05-05 11:22 49.18101 21.06729 24939 ft 356 kts 344°
2026-05-05 11:22 49.20477 21.05860 24574 ft 355 kts 345°
2026-05-05 11:22 49.22878 21.04980 24215 ft 354 kts 344°
2026-05-05 11:22 49.25277 21.04101 23841 ft 354 kts 345°
2026-05-05 11:23 49.27672 21.03222 23461 ft 353 kts 344°
2026-05-05 11:23 49.30055 21.02346 23031 ft 352 kts 344°
2026-05-05 11:23 49.32402 21.01312 22588 ft 347 kts 332°
2026-05-05 11:23 49.34344 20.99282 22200 ft 338 kts 311°
2026-05-05 11:24 49.35908 20.96636 21909 ft 332 kts 308°
2026-05-05 11:24 49.37429 20.93987 21578 ft 329 kts 308°
2026-05-05 11:24 49.38922 20.91331 21240 ft 327 kts 307°
2026-05-05 11:24 49.40375 20.88716 20897 ft 325 kts 307°
2026-05-05 11:25 49.41835 20.86067 20591 ft 322 kts 306°
2026-05-05 11:25 49.43282 20.83426 20272 ft 320 kts 306°
2026-05-05 11:25 49.44708 20.80815 19947 ft 318 kts 306°
2026-05-05 11:25 49.46121 20.78224 19609 ft 316 kts 306°
2026-05-05 11:26 49.47516 20.75667 19288 ft 314 kts 306°
2026-05-05 11:26 49.48918 20.73090 18958 ft 313 kts 306°
2026-05-05 11:26 49.50316 20.70518 18633 ft 312 kts 306°
2026-05-05 11:26 49.51707 20.67956 18306 ft 310 kts 306°
2026-05-05 11:27 49.53089 20.65411 17944 ft 309 kts 306°
2026-05-05 11:27 49.54450 20.62902 17509 ft 305 kts 306°
2026-05-05 11:27 49.55793 20.60423 17143 ft 296 kts 306°
2026-05-05 11:27 49.57148 20.58026 16747 ft 300 kts 314°
2026-05-05 11:28 49.58932 20.56317 16380 ft 311 kts 332°
2026-05-05 11:28 49.60896 20.54926 16042 ft 308 kts 331°
2026-05-05 11:28 49.62831 20.53568 15686 ft 300 kts 332°
2026-05-05 11:28 49.64712 20.52264 15323 ft 293 kts 332°
2026-05-05 11:29 49.66569 20.50990 14965 ft 292 kts 332°
2026-05-05 11:29 49.68413 20.49729 14579 ft 294 kts 332°
2026-05-05 11:29 49.70292 20.48448 14223 ft 295 kts 332°
2026-05-05 11:29 49.72183 20.47160 13857 ft 298 kts 332°
2026-05-05 11:30 49.73767 20.46080 13523 ft 300 kts 332°
2026-05-05 11:30 49.75678 20.44778 13099 ft 302 kts 332°
2026-05-05 11:30 49.77612 20.43459 12712 ft 304 kts 332°
2026-05-05 11:30 49.79557 20.42131 12316 ft 306 kts 332°
2026-05-05 11:31 49.81512 20.40795 11927 ft 307 kts 332°
2026-05-05 11:31 49.83449 20.39470 11548 ft 308 kts 332°
2026-05-05 11:31 49.85416 20.38123 11171 ft 309 kts 332°
2026-05-05 11:31 49.87387 20.36773 10770 ft 308 kts 332°
2026-05-05 11:32 49.89326 20.35443 10385 ft 300 kts 331°
2026-05-05 11:32 49.91207 20.34154 10016 ft 295 kts 331°
2026-05-05 11:32 49.93066 20.32876 9646 ft 292 kts 331°
2026-05-05 11:32 49.94935 20.31591 9251 ft 295 kts 331°
2026-05-05 11:33 49.96821 20.30296 8850 ft 296 kts 332°
2026-05-05 11:33 49.98718 20.28989 8475 ft 298 kts 332°
2026-05-05 11:33 50.00605 20.27687 8099 ft 300 kts 332°
2026-05-05 11:33 50.02527 20.26361 7725 ft 302 kts 332°
2026-05-05 11:34 50.04429 20.24987 7272 ft 298 kts 326°
2026-05-05 11:34 50.05943 20.22895 6704 ft 289 kts 302°
2026-05-05 11:34 50.06997 20.20286 6290 ft 281 kts 300°
2026-05-05 11:34 50.08097 20.17841 5912 ft 276 kts 301°
2026-05-05 11:35 50.09190 20.15402 5503 ft 271 kts 301°
2026-05-05 11:35 50.10261 20.13008 5141 ft 266 kts 301°
2026-05-05 11:35 50.11291 20.10652 4775 ft 260 kts 297°
2026-05-05 11:35 50.11741 20.08025 4306 ft 248 kts 265°
2026-05-05 11:36 50.11471 20.05488 3969 ft 234 kts 256°
2026-05-05 11:36 50.11147 20.03029 3526 ft 230 kts 255°
2026-05-05 11:36 50.10823 20.00608 3190 ft 224 kts 255°
2026-05-05 11:36 50.10516 19.98303 3044 ft 208 kts 255°
2026-05-05 11:37 50.10233 19.96196 2934 ft 191 kts 254°
2026-05-05 11:37 50.09967 19.94239 2615 ft 179 kts 252°
2026-05-05 11:37 50.09711 19.92409 2327 ft 167 kts 252°
2026-05-05 11:37 50.09469 19.90715 2081 ft 154 kts 253°
2026-05-05 11:38 50.09251 19.89127 1832 ft 146 kts 252°
2026-05-05 11:38 50.09035 19.87588 1664 ft 145 kts 251°
2026-05-05 11:38 50.08819 19.86073 1493 ft 146 kts 253°
2026-05-05 11:38 50.08616 19.84496 1370 ft 150 kts 253°
2026-05-05 11:39 50.08383 19.82927 1162 ft 149 kts 253°
2026-05-05 11:39 50.08245 19.81869 1104 ft 151 kts 251°
2026-05-05 11:39 50.08021 19.80272 887 ft 149 kts 253°
2026-05-05 11:39 50.07809 19.78770 805 ft 124 kts 256°
2026-05-05 11:40 50.07683 19.77839 800 ft 53 kts 257°
2026-05-05 11:40 50.07601 19.77254 804 ft 52 kts 258°
2026-05-05 11:40 50.07555 19.76926 805 ft 16 kts 252°
2026-05-05 11:40 50.07473 19.76847 803 ft 16 kts 173°
2026-05-05 11:41 50.07355 19.76887 802 ft 18 kts 165°
2026-05-05 11:41 50.07314 19.77013 802 ft 16 kts 77°
2026-05-05 11:41 50.07338 19.77189 802 ft 18 kts 78°
2026-05-05 11:41 50.07366 19.77389 802 ft 20 kts 78°
2026-05-05 11:42 50.07398 19.77613 802 ft 22 kts 77°
2026-05-05 11:42 50.07432 19.77858 802 ft 24 kts 77°
2026-05-05 11:42 50.07470 19.78118 802 ft 25 kts 78°
2026-05-05 11:42 50.07505 19.78387 802 ft 25 kts 78°
2026-05-05 11:43 50.07541 19.78639 802 ft 24 kts 77°
2026-05-05 11:43 50.07578 19.78908 802 ft 26 kts 78°
2026-05-05 11:43 50.07616 19.79174 802 ft 17 kts 78°
2026-05-05 11:43 50.07642 19.79364 802 ft 19 kts 77°
2026-05-05 11:44 50.07671 19.79577 802 ft 21 kts 78°
2026-05-05 11:44 50.07646 19.79698 802 ft 13 kts 162°
2026-05-05 11:44 50.07553 19.79730 802 ft 15 kts 168°
2026-05-05 11:44 50.07445 19.79765 802 ft 17 kts 168°
2026-05-05 11:45 50.07374 19.79818 802 ft 8 kts 124°
2026-05-05 11:45 50.07323 19.79851 802 ft 7 kts 169°
2026-05-05 11:45 50.07291 19.79862 802 ft 2 kts 167°
2026-05-05 11:45 50.07289 19.79862 802 ft 0 kts 167°